Weather History for GMMN - January, 2013

Change the Weather History Date:

Thursday, January 17, 2013

  Actual Average Record
Temperature  
Mean Temperature 49 °F -  
Max Temperature 63 °F 63 °F 68 °F (2000)
Min Temperature 35 °F 42 °F 35 °F (1998)
Degree Days  
Heating Degree Days 16    
Moisture  
Dew Point 46 °F    
Average Humidity 78    
Maximum Humidity 93    
Minimum Humidity 56    
Precipitation  
Precipitation 0.00 in - - ()
Sea Level Pressure  
Sea Level Pressure 30.31 in    
Wind  
Wind Speed 6 mph ()    
Max Wind Speed 10 mph    
Max Gust Speed -    
Visibility 5.9 miles    
Events      
Averages and records for this station are not official NWS values.
T = Trace of Precipitation, MM = Missing Value Source: Averaged Metar Reports

Daily Weather History Graph

Daily Weather History Graph

Search for Another Location

Airport or City:

Trip Planner

Search our weather history database for the weather conditions in past years. The results will help you decide how hot, cold, wet, or windy it might be!

Date:

Astronomy

Jan. 17, 2013 Rise Set
Actual Time 7:33 AM WET 5:47 PM WET
Civil Twilight 7:06 AM WET 6:14 PM WET
Nautical Twilight 6:36 AM WET 6:44 PM WET
Astronomical Twilight 6:06 AM WET 7:14 PM WET
Moon 10:54 AM WET (1/17) No Moon Set
Length of Visible Light 11h 07m
Length of Day
10h 14m
Waxing Crescent, 35% of the Moon is Illuminated
Jan 17
Waxing Crescent
Jan 18
First Quarter
Jan 27
Full
Feb 3
Last Quarter
Feb 10
New

Hourly Weather History & Observations

Time (WET) Temp. Windchill Dew Point Humidity Pressure Visibility Wind Dir Wind Speed Gust Speed Precip Events Conditions
12:00 AM 48 °F - 43 °F 78% 30.35 in 6 mi SSW 4.6 mph - -   Partly Cloudy
12:00 AM 48.2 °F - 42.8 °F 82% 30.33 in 6.2 mi SSW 4.6 mph - N/A   Scattered Clouds
12:30 AM 48.2 °F - 42.8 °F 82% 30.33 in 6.2 mi SSW 5.8 mph - N/A   Scattered Clouds
1:00 AM 48.2 °F - 42.8 °F 82% 30.33 in 5.0 mi South 8.1 mph - N/A   Scattered Clouds
1:30 AM 44.6 °F 40.7 °F 41.0 °F 87% 30.33 in 6.2 mi South 6.9 mph - N/A   Scattered Clouds
2:00 AM 44.6 °F 40.7 °F 39.2 °F 81% 30.33 in 6.2 mi South 6.9 mph - N/A   Scattered Clouds
2:30 AM 44.6 °F 41.4 °F 41.0 °F 87% 30.33 in 6.2 mi SSW 5.8 mph - N/A   Scattered Clouds
3:00 AM 46 °F - 43 °F 84% 30.36 in 4 mi South 6.9 mph - -   Partly Cloudy
3:00 AM 46.4 °F 42.9 °F 42.8 °F 87% 30.33 in 6.2 mi South 6.9 mph - N/A   Scattered Clouds
3:30 AM 46.4 °F 43.5 °F 42.8 °F 87% 30.33 in 6.2 mi South 5.8 mph - N/A   Unknown
4:00 AM 48.2 °F - 42.8 °F 82% 30.33 in 6.2 mi SSW 6.9 mph - N/A   Scattered Clouds
4:30 AM 48.2 °F - 42.8 °F 82% 30.30 in 6.2 mi SSW 8.1 mph - N/A   Scattered Clouds
5:00 AM 48.2 °F - 42.8 °F 82% 30.30 in 6.2 mi South 8.1 mph - N/A   Scattered Clouds
5:30 AM 48.2 °F - 42.8 °F 82% 30.30 in 6.2 mi South 6.9 mph - N/A   Unknown
6:00 AM 49 °F - 43 °F 74% 30.33 in 6 mi South 6.9 mph - -   Partly Cloudy
6:00 AM 48.2 °F - 42.8 °F 82% 30.30 in 6.2 mi South 6.9 mph - N/A   Scattered Clouds
6:30 AM 48.2 °F - 42.8 °F 82% 30.33 in 6.2 mi SSE 4.6 mph - N/A   Scattered Clouds
7:00 AM 48.2 °F - 42.8 °F 82% 30.30 in 6.2 mi South 5.8 mph - N/A   Scattered Clouds
7:30 AM 48.2 °F - 42.8 °F 82% 30.33 in 6.2 mi South 5.8 mph - N/A   Mostly Cloudy
8:00 AM 50.0 °F - 42.8 °F 76% 30.33 in 6.2 mi South 4.6 mph - N/A   Mostly Cloudy
8:30 AM 50.0 °F - 44.6 °F 82% 30.33 in 6.2 mi South 5.8 mph - N/A   Mostly Cloudy
9:00 AM 52 °F - 44 °F 67% 30.35 in 6 mi SSW 6.9 mph - -   Mostly Cloudy
9:00 AM 51.8 °F - 44.6 °F 76% 30.33 in 6.2 mi SSW 6.9 mph - N/A   Mostly Cloudy
9:30 AM 55.4 °F - 44.6 °F 67% 30.33 in 6.2 mi SSW 9.2 mph - N/A   Mostly Cloudy
10:00 AM 57.2 °F - 46.4 °F 67% 30.33 in 6.2 mi SSW 8.1 mph - N/A   Mostly Cloudy
10:30 AM 57.2 °F - 48.2 °F 72% 30.33 in 6.2 mi SW 8.1 mph - N/A   Scattered Clouds
11:00 AM 59.0 °F - 48.2 °F 67% 30.33 in 6.2 mi SSW 6.9 mph - N/A   Scattered Clouds
11:30 AM 60.8 °F - 50.0 °F 68% 30.33 in 6.2 mi WSW 5.8 mph - N/A   Mostly Cloudy
12:00 PM 61 °F - 49 °F 56% 30.32 in 6 mi WSW 6.9 mph - -   Mostly Cloudy
12:00 PM 60.8 °F - 50.0 °F 68% 30.33 in 6.2 mi WSW 6.9 mph - N/A   Mostly Cloudy
12:30 PM 60.8 °F - 48.2 °F 63% 30.30 in 6.2 mi West 5.8 mph - N/A   Mostly Cloudy
1:00 PM 60.8 °F - 48.2 °F 63% 30.30 in 6.2 mi West 6.9 mph - N/A   Mostly Cloudy
1:30 PM 60.8 °F - 50.0 °F 68% 30.30 in 6.2 mi West 10.4 mph - N/A   Mostly Cloudy
2:00 PM 60.8 °F - 50.0 °F 68% 30.27 in 6.2 mi WSW 6.9 mph - N/A   Mostly Cloudy
2:30 PM 60.8 °F - 50.0 °F 68% 30.27 in 6.2 mi WNW 6.9 mph - N/A   Mostly Cloudy
3:00 PM 63 °F - 51 °F 57% 30.28 in 6 mi WNW 5.8 mph - -   Mostly Cloudy
3:00 PM 62.6 °F - 51.8 °F 68% 30.27 in 6.2 mi WNW 5.8 mph - N/A   Mostly Cloudy
3:30 PM 62.6 °F - 51.8 °F 68% 30.27 in 6.2 mi NNW 6.9 mph - N/A   Mostly Cloudy
4:00 PM 62.6 °F - 50.0 °F 63% 30.27 in 6.2 mi NW 9.2 mph - N/A   Mostly Cloudy
4:30 PM 62.6 °F - 51.8 °F 68% 30.27 in 6.2 mi NW 9.2 mph - N/A   Mostly Cloudy
5:00 PM 60.8 °F - 51.8 °F 72% 30.27 in 6.2 mi NW 8.1 mph - N/A   Mostly Cloudy
5:30 PM 59.0 °F - 51.8 °F 77% 30.27 in 6.2 mi NW 6.9 mph - N/A   Scattered Clouds
6:00 PM 57 °F - 50 °F 71% 30.30 in 6 mi NW 6.9 mph - -   Partly Cloudy
6:00 PM 57.2 °F - 50.0 °F 77% 30.27 in 6.2 mi NW 6.9 mph - N/A   Scattered Clouds
6:30 PM 55.4 °F - 50.0 °F 82% 30.30 in 6.2 mi NW 8.1 mph - N/A   Scattered Clouds
7:00 PM 55.4 °F - 50.0 °F 82% 30.30 in 6.2 mi NW 6.9 mph - N/A   Scattered Clouds
7:30 PM 53.6 °F - 50.0 °F 88% 30.30 in 6.2 mi NW 4.6 mph - N/A   Scattered Clouds
8:00 PM 53.6 °F - 50.0 °F 88% 30.30 in 6.2 mi WNW 4.6 mph - N/A   Scattered Clouds
8:30 PM 53.6 °F - 50.0 °F 88% 30.30 in 6.2 mi NW 3.5 mph - N/A   Scattered Clouds
9:00 PM 53 °F - 49 °F 81% 30.31 in 6 mi Calm Calm - -   Partly Cloudy
9:00 PM 53.6 °F - 48.2 °F 82% 30.30 in 6.2 mi Calm Calm - N/A   Scattered Clouds
9:30 PM 51.8 °F - 48.2 °F 88% 30.30 in 4.3 mi Calm Calm - N/A   Scattered Clouds
10:00 PM 50.0 °F - 46.4 °F 87% 30.27 in 5.6 mi South 4.6 mph - N/A   Scattered Clouds
10:30 PM 48.2 °F - 46.4 °F 93% 30.27 in 6.2 mi SSE 6.9 mph - N/A   Scattered Clouds
10:45 PM 48.2 °F - 46.4 °F 93% 30.27 in - SSE 9.2 mph - N/A   Scattered Clouds
11:00 PM 48.2 °F - 44.6 °F 87% 30.27 in 1.7 mi South 8.1 mph - N/A   Scattered Clouds
11:30 PM 48.2 °F - 44.6 °F 87% 30.27 in - South 5.8 mph - N/A   Scattered Clouds
11:43 PM 48.2 °F - 46.4 °F 93% 30.27 in 3.1 mi South 6.9 mph - N/A   Scattered Clouds